TimeCDT,TemperatureF,Dew PointF,Humidity,Sea Level PressureIn,VisibilityMPH,Wind Direction,Wind SpeedMPH,Gust SpeedMPH,PrecipitationIn,Events,Conditions,WindDirDegrees,DateUTC
12:56 AM,53.1,37.9,57,29.95,10.0,North,3.5,-,N/A,,Clear,360,2013-05-05 05:56:00
1:56 AM,51.1,37.0,59,29.95,10.0,North,5.8,-,N/A,,Clear,350,2013-05-05 06:56:00
2:56 AM,48.9,37.0,64,29.95,10.0,North,3.5,-,N/A,,Clear,350,2013-05-05 07:56:00
3:56 AM,45.0,39.0,80,29.95,10.0,Calm,Calm,-,N/A,,Clear,0,2013-05-05 08:56:00
4:56 AM,43.0,39.9,89,29.96,10.0,Calm,Calm,-,N/A,,Clear,0,2013-05-05 09:56:00
5:56 AM,42.1,39.0,89,29.98,10.0,Calm,Calm,-,N/A,,Clear,0,2013-05-05 10:56:00
6:56 AM,43.0,39.9,89,30.00,8.0,Calm,Calm,-,N/A,,Clear,0,2013-05-05 11:56:00
7:56 AM,46.9,39.0,74,30.02,10.0,Variable,4.6,-,N/A,,Clear,0,2013-05-05 12:56:00
8:56 AM,51.1,37.9,61,30.04,10.0,Variable,6.9,17.3,N/A,,Clear,0,2013-05-05 13:56:00
9:56 AM,55.0,37.0,51,30.04,10.0,Variable,5.8,16.1,N/A,,Partly Cloudy,0,2013-05-05 14:56:00
10:56 AM,54.0,36.0,51,30.06,10.0,Variable,5.8,19.6,N/A,,Mostly Cloudy,0,2013-05-05 15:56:00
11:56 AM,59.0,37.0,44,30.05,10.0,NNE,9.2,18.4,N/A,,Scattered Clouds,20,2013-05-05 16:56:00
12:56 PM,62.1,37.9,41,30.04,10.0,Variable,4.6,-,N/A,,Partly Cloudy,0,2013-05-05 17:56:00
1:56 PM,63.0,37.9,40,30.03,10.0,NW,9.2,-,N/A,,Scattered Clouds,320,2013-05-05 18:56:00
2:56 PM,64.9,37.9,37,30.01,10.0,Variable,5.8,-,N/A,,Clear,0,2013-05-05 19:56:00
3:56 PM,66.0,37.9,36,29.99,10.0,Variable,6.9,17.3,N/A,,Clear,0,2013-05-05 20:56:00
4:56 PM,64.9,39.0,39,29.99,10.0,Variable,6.9,16.1,N/A,,Partly Cloudy,0,2013-05-05 21:56:00
5:56 PM,64.9,39.0,39,29.99,10.0,North,9.2,-,N/A,,Partly Cloudy,10,2013-05-05 22:56:00
6:56 PM,63.0,39.0,41,30.00,10.0,Calm,Calm,-,N/A,,Clear,0,2013-05-05 23:56:00
7:56 PM,57.0,45.0,64,30.01,10.0,Calm,Calm,-,N/A,,Clear,0,2013-05-06 00:56:00
8:56 PM,51.1,46.9,86,30.03,10.0,Calm,Calm,-,N/A,,Clear,0,2013-05-06 01:56:00
9:56 PM,48.9,46.0,90,30.04,10.0,Calm,Calm,-,N/A,,Clear,0,2013-05-06 02:56:00
10:56 PM,46.9,45.0,93,30.05,10.0,Calm,Calm,-,N/A,,Clear,0,2013-05-06 03:56:00
11:56 PM,46.9,44.1,90,30.04,10.0,Calm,Calm,-,N/A,,Clear,0,2013-05-06 04:56:00